{"data":{"norad_id":63304,"intl_designator":"2025-056E","name":"KINEIS-4B","alt_names":[],"object_type":"PAYLOAD","status":"ACTIVE","operator":null,"country":"FR","launch_date":"2025-03-18","launch_site_code":"RLLB","launch_vehicle":null,"mission":null,"orbit_class":"UNKNOWN","rcs_meters":null,"size_class":null,"mass_kg":null,"dimensions":null,"purposes":[],"wikipedia_slug":null,"has_3d_model":false,"image_url":null,"decayed_at":null,"tle_current":{"epoch":"2026-05-25T07:29:21.589152Z","epoch_age_seconds":44135,"freshness":"FRESH","line1":"1 63304U 25056E   26145.31205543  .00001332  00000+0  21846-3 0  9997","line2":"2 63304  97.9094 270.0232 0005807  26.0388 334.1111 14.72274186 63756","mean_motion":14.72274186,"eccentricity":0.0005807,"inclination_deg":97.9094,"raan_deg":270.0232,"arg_perigee_deg":26.0388,"mean_anomaly_deg":334.1111,"bstar":0.00021846,"rev_number":6375,"period_min":97.807868513426,"perigee_km":649.73389854373,"apogee_km":657.90081033098,"semimajor_km":7031.9543544374,"source":"CELESTRAK","updated_at":"2026-05-25T13:38:03.648764Z"}}}